Location: Unspecified
(0.0000°N, 0.0000°E)
Time: 16:17:34
(UTC+00:00)

Tiangong 2 - Pass Details

Date: 07 January 2018
Orbit: 382 x 387 km, 42.8° (Epoch: 22 April)

Event Time Altitude Azimuth Distance (km) Brightness Sun altitude
Rises 19:29:08 0° 311° (NW) 2,252 5.3 -19.1°
Reaches altitude 10° 19:31:13 10° 308° (NW) 1,399 4.2 -19.5°
Maximum altitude 19:34:20 65° 226° (SW) 421 1.4 -20.3°
Enters shadow 19:34:43 58° 182° (S) 451 1.4 -20.3°
